SCP
0 0 0 0 0 0 0 0 0 0 0 0 1 1 2 2 3 4 5 5 6 6 5 5 6 6 6 6 7 9 11 11 8 5 3 3 3 3 2 2 2 2 2 2
0 0 0 0 0 0 0 0 0 0 0 0 1 1 2 2 2 3 4 5 6 7 6 6 5 6 6 6 7 9 10 10 7 4 3 3 2 2 2 2 2 2 2 2
0 0 0 0 0 0 0 0 0 0 0 0 0 1 1 2 2 3 3 4 5 6 6 7 6 6 6 7 7 7 8 7 5 3 3 2 2 2 2 2 2 2 2 2
0 0 0 0 0 0 0 0 0 0 0 0 0 1 1 1 2 2 2 3 4 5 6 8 8 7 6 6 6 6 5 4 4 3 3 3 2 2 2 2 2 2 2 2
0 0 0 0 0 0 0 0 0 0 0 0 0 0 1 1 2 2 2 3 3 4 5 7 7 6 5 6 6 5 4 4 3 3 3 3 2 2 2 2 2 1 1 1
0 0 0 0 0 0 0 0 0 0 0 0 0 0 0 1 1 2 2 2 3 3 4 5 5 5 4 5 5 5 4 3 3 3 3 2 2 1 1 2 2 1 1 1
0 0 0 0 0 0 0 0 0 0 0 0 0 0 0 0 1 1 2 2 3 3 3 4 4 4 4 4 5 4 3 3 3 3 2 2 2 1 1 1 2 2 2 1
0 0 0 0 0 0 0 0 0 0 0 0 0 0 0 0 0 1 2 3 3 3 3 3 4 4 4 4 4 3 3 3 3 3 3 2 2 1 1 1 2 2 2 2
0 0 0 0 0 0 0 0 0 0 0 0 0 0 0 0 0 1 2 3 3 3 2 3 3 3 3 3 3 2 2 2 3 3 3 3 2 2 1 1 2 3 3 3
0 0 0 0 0 0 0 0 0 0 0 0 0 0 0 0 0 1 2 2 3 2 2 2 2 2 3 3 2 2 2 2 2 2 3 3 2 2 2 1 2 3 3 3
0 0 0 0 0 0 0 0 0 0 0 0 0 0 0 0 0 1 1 2 2 2 2 2 2 2 2 2 2 2 2 2 2 2 2 2 2 2 2 2 2 3 3 4
0 0 0 0 0 0 0 0 0 0 0 0 0 0 1 1 1 1 1 1 1 1 1 1 2 2 2 2 2 2 2 2 2 2 3 3 3 2 2 2 2 2 3 4
0 0 0 0 0 0 0 0 0 0 0 0 0 1 1 1 1 1 1 1 1 1 2 2 2 2 2 2 2 2 2 2 3 3 3 3 3 3 2 2 2 2 3 4
0 0 0 0 0 0 0 0 0 0 0 0 1 1 1 1 1 2 2 1 1 2 2 3 3 2 2 3 3 3 2 3 3 4 3 3 3 3 3 2 2 2 2 2
0 0 0 0 0 0 0 1 1 1 1 1 1 1 2 2 2 2 2 2 3 3 3 4 3 3 3 3 3 3 3 3 4 4 4 3 3 3 3 2 2 2 2 2
0 0 0 0 0 0 1 1 1 1 1 1 1 2 2 3 4 3 4 4 4 5 5 6 7 6 5 4 4 3 3 3 4 4 4 4 4 4 4 3 3 2 2 2
0 0 0 1 0 0 0 1 1 1 1 1 1 2 3 5 6 6 5 6 6 6 7 9 10 9 8 6 4 3 3 3 4 5 5 6 6 6 5 5 4 3 2 2
0 0 0 0 0 0 0 1 2 2 2 2 2 2 3 4 6 6 6 6 6 6 6 8 8 8 7 6 5 4 3 4 5 5 6 7 7 7 7 6 5 4 3 2
0 0 0 0 0 0 1 1 2 3 3 2 2 2 3 3 4 5 5 5 5 5 4 5 5 5 4 4 4 4 4 5 5 6 6 7 7 7 6 6 5 3 3 2
0 0 0 0 0 1 1 2 2 2 2 2 2 2 3 3 3 4 4 4 4 4 4 4 4 4 4 3 3 3 3 4 4 4 4 5 5 5 5 4 4 3 2 1
0 0 0 0 0 1 2 2 2 1 1 1 2 2 3 3 3 4 5 5 5 5 4 4 5 5 4 3 3 3 3 3 3 3 4 4 4 4 4 4 3 2 1 1
0 0 0 0 1 1 2 2 1 1 1 1 1 2 3 3 4 4 5 5 5 4 4 4 4 5 4 2 2 3 4 4 4 4 4 3 3 3 3 3 3 2 1 1
0 0 0 1 1 1 1 1 1 1 1 1 1 1 2 3 2 3 3 3 3 2 2 2 3 3 2 1 1 2 3 4 4 3 3 3 3 3 3 3 2 2 1 1
0 0 0 1 1 1 1 1 1 1 1 1 1 1 1 1 1 1 1 2 2 1 1 1 1 1 1 0 1 1 1 2 2 2 2 2 2 2 2 2 2 1 1 1
0 0 0 0 1 1 1 1 1 1 1 1 1 1 1 0 0 1 1 1 1 1 1 1 1 0 0 0 0 0 0 0 1 1 1 1 1 1 1 1 1 0 0 0
0 0 0 0 0 1 1 1 1 1 1 1 1 1 1 0 0 0 1 1 1 1 1 0 0 0 0 0 0 0 0 0 0 0 0 0 0 0 0 0 0 0 0 0
Wind_Speed
4 3 6 8 9 8 6 8 10 12 9 3 3 4 5 5 7 9 9 9 10 9 7 7 7 8 8 8 9 11 11 10 9 6 6 6 5 5 5 5 6 7 7 6
2 8 11 9 8 8 9 10 10 10 6 1 1 2 2 3 6 7 9 9 10 8 7 8 9 9 10 10 10 11 11 10 8 6 5 4 4 4 5 5 5 6 7 7
10 9 8 10 11 10 11 8 8 8 6 2 2 3 3 2 0 2 4 7 9 12 12 12 10 9 10 10 11 11 10 10 9 7 5 4 3 3 3 4 4 5 7 7
8 11 10 10 11 10 10 10 8 7 2 3 1 2 5 3 2 1 2 4 7 9 10 10 10 9 10 10 9 9 9 9 9 9 9 9 7 6 5 5 4 5 6 6
8 7 9 11 13 11 10 10 6 4 1 1 3 2 5 2 3 4 3 3 4 6 10 11 10 10 8 8 9 8 9 8 9 9 10 9 7 5 4 4 5 5 4 6
10 8 8 11 11 9 8 4 3 4 5 2 3 2 4 3 5 5 3 2 3 6 8 9 8 8 6 7 8 8 9 8 8 9 9 9 9 8 8 7 6 5 4 4
8 10 9 8 7 6 2 3 4 5 4 4 3 1 6 7 5 4 3 4 3 6 7 8 9 9 8 9 8 8 9 8 8 9 9 9 10 10 10 8 8 7 5 4
5 8 7 6 9 8 5 9 8 5 5 4 2 2 6 8 4 2 2 3 3 5 7 10 10 10 10 10 9 9 9 8 9 9 9 8 8 7 6 8 7 7 6 6
7 8 7 6 6 8 4 5 9 8 3 0 3 3 5 4 3 2 1 1 4 6 7 9 9 10 9 9 8 8 8 7 8 9 8 8 8 7 7 7 6 6 5 6
8 5 7 5 1 2 7 7 6 6 5 2 3 3 5 5 5 2 0 1 3 4 6 7 8 9 8 8 7 6 7 7 7 7 8 8 8 8 7 7 7 7 7 6
7 5 6 3 2 4 1 3 5 5 6 6 3 6 7 8 6 4 3 2 2 4 6 6 7 8 7 7 6 6 6 6 6 7 7 7 7 7 6 6 7 7 6 7
6 6 3 5 4 3 6 5 7 6 3 5 4 7 4 6 6 5 4 3 3 5 6 6 7 8 7 7 7 6 6 6 6 6 7 7 7 6 6 6 6 6 6 6
5 7 2 6 7 4 2 2 4 6 5 4 4 5 2 2 3 4 4 2 2 3 6 7 7 8 8 7 6 6 6 6 5 5 6 7 6 7 7 6 6 6 7 6
6 5 7 8 6 2 1 0 3 6 4 3 5 5 3 3 3 2 3 4 3 5 7 8 8 8 8 7 7 6 5 5 6 5 6 6 7 7 6 5 5 6 6 7
6 4 2 3 2 1 1 1 0 3 5 6 6 6 6 4 4 3 4 5 5 5 6 8 9 8 8 7 7 6 6 5 6 5 5 5 5 5 5 5 5 5 5 6
5 3 2 2 2 3 2 3 3 2 2 3 5 1 1 2 3 3 3 5 5 5 5 7 7 8 9 9 8 7 6 6 6 6 6 5 5 5 5 5 5 5 5 5
3 4 4 1 3 4 2 2 2 3 3 3 3 2 3 4 4 2 2 4 4 3 3 5 7 7 7 7 8 8 7 6 6 6 6 5 5 5 4 5 5 5 5 4
4 3 3 2 3 1 4 2 5 8 7 5 5 4 5 5 4 4 4 4 4 3 3 2 3 5 5 6 6 6 6 6 6 6 5 5 6 6 5 4 5 4 4 4
4 6 4 3 2 2 2 3 1 5 5 5 6 6 5 5 6 6 5 5 3 2 2 1 2 4 5 6 6 6 6 6 6 6 5 5 6 6 5 5 4 4 4 4
5 5 5 4 3 3 3 5 2 7 3 3 4 4 3 3 3 0 3 5 5 4 3 2 3 5 6 5 6 7 6 6 6 5 5 4 5 5 5 5 4 4 4 4
4 4 4 3 2 2 3 6 3 5 4 1 1 2 3 2 3 3 3 5 6 5 5 5 5 5 4 5 7 8 6 5 5 5 5 5 4 5 5 5 4 4 5 5
2 2 2 2 3 4 4 4 3 3 2 2 2 3 5 6 6 5 6 6 6 6 7 6 7 6 5 5 7 9 6 4 5 6 7 6 5 4 4 5 5 5 6 6
1 3 3 3 3 1 1 3 2 2 4 2 3 4 7 6 6 5 6 6 6 6 7 7 8 9 8 7 7 9 6 6 7 8 7 6 6 6 6 6 6 5 5 5
1 1 3 2 1 2 4 5 4 4 4 3 4 5 7 7 6 7 6 7 7 7 7 7 10 10 9 8 9 8 7 7 9 9 7 6 7 7 7 5 5 5 4 4
1 1 2 1 0 2 5 5 5 6 7 7 6 6 7 9 9 8 8 8 7 8 7 8 9 10 9 9 10 8 7 8 10 9 8 7 7 7 8 7 6 6 4 3
1 2 3 3 3 2 1 2 5 7 7 7 8 8 8 8 10 9 9 8 8 9 8 10 10 10 10 10 10 8 7 8 9 8 7 5 6 6 6 6 7 11 9 10
Wind_Direction
220 164 220 226 214 215 248 273 281 278 282 274 208 205 229 192 169 166 166 168 170 173 173 163 168 170 161 163 165 165 163 164 157 155 158 157 166 169 164 169 171 170 170 164
259 241 230 228 240 245 255 266 276 286 291 340 185 244 261 188 182 174 166 166 165 158 163 171 169 169 169 170 169 165 165 162 161 165 162 154 154 165 165 170 176 176 171 166
213 239 226 227 242 250 259 246 252 264 298 343 112 342 310 300 167 164 160 162 168 171 172 171 167 169 167 170 171 169 164 163 163 158 142 136 128 126 153 172 178 183 175 168
240 245 248 244 243 234 256 251 246 262 287 293 135 212 288 285 300 206 173 175 182 174 171 168 164 162 174 176 168 161 162 166 168 163 164 167 171 175 181 178 175 177 175 169
241 227 226 237 241 232 237 250 251 257 213 8 3 118 283 330 306 290 261 216 195 180 173 170 171 170 180 175 168 166 165 170 172 173 175 175 176 174 162 164 167 174 176 173
249 258 230 229 243 234 235 264 344 34 68 20 280 151 273 256 245 269 285 267 204 182 180 169 163 159 173 178 170 166 170 177 177 177 178 179 174 169 167 173 176 179 175 178
278 274 256 237 246 265 219 108 28 355 10 260 274 133 249 258 248 237 258 265 219 179 172 165 162 167 176 179 175 172 177 182 181 180 181 180 177 175 177 178 181 179 177 183
231 272 256 226 204 211 212 149 160 191 217 263 320 220 255 264 262 254 245 223 198 181 175 173 173 174 179 179 175 177 181 185 183 182 183 180 177 179 182 182 180 183 186 188
203 248 264 242 207 177 187 182 171 145 163 135 280 280 295 303 322 333 286 157 191 184 177 177 175 174 175 176 176 178 178 181 183 182 179 178 180 182 183 181 179 180 182 187
183 249 285 273 256 224 171 163 104 119 151 223 275 246 238 259 261 269 274 192 187 180 176 177 171 172 174 174 170 173 176 180 182 181 182 183 185 186 183 178 182 184 187 189
169 191 293 349 161 204 136 116 115 125 146 155 219 261 222 207 211 216 230 216 182 180 180 177 169 168 165 162 164 171 172 172 177 183 183 180 182 183 179 181 184 183 186 184
172 148 241 268 266 184 150 159 139 145 196 160 165 261 258 196 206 206 212 193 184 184 172 170 164 158 161 165 168 173 176 177 182 183 181 181 179 175 178 182 182 179 182 185
142 125 136 330 341 2 83 122 135 132 126 148 154 254 297 186 210 205 187 180 174 168 163 156 156 159 163 168 172 177 182 179 174 172 176 178 179 176 181 184 183 182 181 180
113 113 154 188 217 226 102 107 128 118 135 184 197 208 264 238 214 215 165 146 153 173 171 160 162 163 164 165 169 173 178 177 172 169 168 176 180 178 182 182 180 180 177 176
81 103 145 177 181 121 88 16 73 130 167 174 198 187 218 216 190 184 156 143 145 157 166 171 170 168 165 166 169 173 175 170 163 160 165 172 168 166 168 172 172 162 160 165
55 96 73 22 31 53 35 19 30 55 93 134 137 146 219 114 94 101 121 132 153 164 165 168 163 164 170 173 174 175 176 172 160 158 163 162 156 156 159 162 154 144 143 141
49 83 81 344 343 41 4 345 70 60 39 123 140 194 133 87 82 99 97 99 114 126 137 149 163 165 171 175 172 173 175 165 159 159 159 157 153 148 150 152 141 142 146 143
116 90 109 101 55 176 245 347 83 87 56 65 101 112 124 126 102 74 76 80 66 54 57 99 142 154 157 158 156 159 159 155 154 152 152 152 151 150 148 141 144 150 145 147
128 129 110 114 147 249 319 352 34 102 52 35 89 90 92 113 73 41 38 59 65 57 66 91 137 140 138 145 151 144 143 143 142 148 153 158 157 153 152 151 155 152 139 137
61 95 110 117 140 201 257 315 328 101 93 11 79 105 115 100 90 357 17 41 47 43 47 72 95 102 114 129 136 135 136 136 145 151 150 145 145 143 143 144 142 134 130 136
31 48 97 137 162 236 306 319 24 108 197 254 110 115 104 100 142 128 61 44 49 48 51 67 82 87 100 117 122 125 128 139 146 129 117 113 121 131 134 131 124 117 115 112
141 116 132 128 149 236 325 26 82 179 179 118 96 95 97 103 101 89 72 57 52 55 59 67 79 74 69 88 110 111 111 119 110 105 102 99 97 105 107 106 103 102 109 107
128 172 166 166 184 232 11 83 75 113 107 110 113 118 118 110 104 90 76 70 66 66 67 69 79 74 62 64 86 94 92 93 98 97 93 88 85 83 90 100 103 95 95 102
329 68 102 84 41 35 58 73 56 69 84 89 108 117 119 117 108 96 86 82 76 70 68 68 74 74 66 62 70 75 79 90 97 97 93 87 84 76 68 71 79 91 93 103
256 79 95 99 110 52 40 50 65 71 71 75 82 90 104 113 107 100 95 89 84 76 69 70 73 74 70 67 66 64 68 83 89 88 87 85 85 86 77 67 57 69 61 89
268 160 157 193 196 137 68 40 78 83 75 82 91 83 83 101 105 100 94 88 86 82 77 76 73 71 67 68 64 56 59 76 87 86 84 86 92 93 94 92 72 53 65 70